Station PSLC1 - 9412110 - Port San Luis, CA Image indicating link to RSS feed of recent meteorological observations for station PSLC1


Conditions at PSLC1 as of
(3:48 am PDT)
1048 GMT on 07/13/2024:
     

Click on the graph icon in the table below to see a time series plot of the last five days of that observation.

5-day plot - Wind Direction Wind Direction (WDIR): NE ( 50 deg true )
5-day plot - Wind Speed Wind Speed (WSPD): 1.0 kts
5-day plot - Wind Gust Wind Gust (GST): 4.1 kts
5-day plot - Atmospheric Pressure Atmospheric Pressure (PRES):29.91 in
5-day plot - Air Temperature Air Temperature (ATMP): 55.0 °F
5-day plot - Water Temperature Water Temperature (WTMP): 57.7 °F
5-day plot - Wind Speed at 10 Meters Wind Speed at 10 meters (WSPD10M): 1.9 kts
5-day plot - Wind Speed at 20 Meters Wind Speed at 20 meters (WSPD20M): 1.9 kts
5-day plot -  Wind Speed, Wind Gust and Atmospheric Pressure Combined plot of Wind Speed, Gust, and Air Pressure
NOS Water Level Observation Network Water Level
Previous observations
TIME
(PDT)
5-day plot - Wind Direction
WDIR
 
5-day plot - Wind Speed
WSPD
kts
5-day plot - Wind Gust
GST
kts
5-day plot - Wave Height
WVHT
ft
5-day plot - Dominant Wave Period
DPD
sec
5-day plot - Average Wave Period
APD
sec
5-day plot - Mean Wave Direction
MWD
 
5-day plot - Atmospheric Pressure
PRES
in
5-day plot - Pressure Tendency
PTDY
in
5-day plot - Air Temperature
ATMP
°F
5-day plot - Water Temperature
WTMP
°F
5-day plot - Dew Point
DEWP
°F
5-day plot - Salinity
SAL
psu
5-day plot - Visibility
VIS
nmi
5-day plot - Tide (above MLLW)
TIDE
ft
2024-07-13 03:42 amNNW 2.9 2.9----29.91- 54.9 57.7----
2024-07-13 03:36 am- 0.0 1.9----29.91- 54.9 57.7----
2024-07-13 03:30 am S 1.9 4.1----29.92- 54.9 57.7----
2024-07-13 03:24 am SE 1.0 2.9----29.92- 54.7 57.9----
2024-07-13 03:18 amNNE 1.0 5.1----29.92- 54.7 57.9----
2024-07-13 03:12 amSSE 7.0 8.0----29.92- 54.9 57.7----
2024-07-13 03:06 amSSW 5.1 8.0----29.91- 54.9 57.7----
2024-07-13 03:00 am SW 1.0 5.1----29.91+0.00- 57.9----
2024-07-13 02:54 amNNE 1.0 8.0----29.90-- 57.9----
2024-07-13 02:48 am NE 6.0 8.0----29.90-- 57.9----
2024-07-13 02:42 am SW 5.1 7.0----29.88-- 58.1----
2024-07-13 02:36 am SW 4.1 4.1----29.88-- 58.1----
2024-07-13 02:30 am NW 1.9 2.9----29.88- 54.9 58.1----
2024-07-13 02:24 am- 0.0 4.1----29.89- 54.9 58.1----
2024-07-13 02:18 am W 5.1 5.1----29.89- 54.9 58.1----
2024-07-13 02:12 amNNW 4.1 8.0----29.90- 54.7 58.1----
2024-07-13 02:06 am NW 4.1 7.0----29.91- 54.7 58.1----
2024-07-13 02:00 amNNW 7.0 8.9----29.90+0.00 54.9 58.3----
2024-07-13 01:54 am SW 1.0 4.1----29.91- 54.9 58.3----
2024-07-13 01:48 am SW 2.9 5.1----29.91- 54.9 58.3----
2024-07-13 01:42 amSSW 5.1 8.9----29.90- 54.9 58.3----
2024-07-13 01:36 amSSE 8.0 9.9----29.91- 55.0 58.3----
2024-07-13 01:30 amESE 1.0 4.1----29.88- 55.0 58.3----
2024-07-13 01:24 amESE 5.1 6.0----29.89- 55.2 58.3----
2024-07-13 01:18 amNNW 1.9 4.1----29.87- 55.0 58.1----
2024-07-13 01:12 am N 1.9 2.9----29.87- 55.0 58.1----
2024-07-13 01:06 am E 2.9 4.1----29.89- 54.9 58.1----
2024-07-13 01:00 am E 1.9 2.9------ 55.0 58.1----
2024-07-13 12:54 am NE 1.9 1.9------ 55.0 58.1----
2024-07-13 12:48 am SE 2.9 4.1----29.91- 55.0 58.3----
2024-07-13 12:42 amNNE 2.9 4.1----29.90- 55.0 58.3----
2024-07-13 12:36 am E 4.1 5.1----29.91- 55.0 58.3----
2024-07-13 12:30 amENE 4.1 6.0----29.90- 55.0 58.3----
2024-07-13 12:24 am NE 2.9 4.1----29.90- 55.2 58.3----
2024-07-13 12:18 amENE 2.9 7.0----29.90- 55.2 58.3----
2024-07-13 12:12 amNNE 5.1 7.0----29.90- 55.2 58.3----
2024-07-13 12:06 amNNE 4.1 5.1----29.91- 55.2 58.3----
2024-07-13 12:00 am N 1.0 1.9----29.91+0.02 55.2 58.3----
2024-07-12 11:54 pm E 2.9 4.1----29.91- 55.2 58.3----
2024-07-12 11:48 pm E 4.1 5.1----29.91- 55.2 58.3----
2024-07-12 11:42 pm NE 2.9 5.1----29.90- 55.4 58.5----
2024-07-12 11:36 pmNNE 2.9 4.1----29.89- 55.4 58.5----
2024-07-12 11:30 pm NE 4.1 4.1----29.90- 55.4 58.5----
2024-07-12 11:24 pm NE 2.9 2.9----29.90- 55.4 58.5----
2024-07-12 11:18 pmENE 2.9 2.9----29.90- 55.4 58.5----
2024-07-12 11:12 pmENE 2.9 5.1----29.90- 55.4 58.5----
2024-07-12 11:06 pm E 4.1 5.1----29.90- 55.4 58.5----
2024-07-12 11:00 pm E 2.9 4.1----29.90+0.02 55.8 58.3----
2024-07-12 10:54 pm- 0.0 2.9----29.90- 55.6 58.3----
2024-07-12 10:48 pm N 1.9 5.1----29.90- 55.8 58.1----
2024-07-12 10:42 pmENE 2.9 2.9----29.90- 55.8 58.1----
2024-07-12 10:36 pm NE 1.9 1.9----29.89- 55.8 58.1----
2024-07-12 10:30 pm E 1.9 2.9----29.90- 55.9 58.1----
2024-07-12 10:24 pm- 0.0 1.9----29.89- 55.8 58.1----
2024-07-12 10:18 pmWNW 1.0 1.9----29.89- 55.8 58.1----
2024-07-12 10:12 pm W 1.9 1.9----29.89- 55.8 58.1----
2024-07-12 10:06 pm N 1.0 4.1----29.89- 55.8 58.1----
2024-07-12 10:00 pm N 4.1 5.1----29.89+0.03 55.8 58.1----
2024-07-12 09:54 pmNNW 4.1 5.1----29.89- 55.8 58.1----
2024-07-12 09:48 pm N 5.1 5.1----29.90- 55.8 58.1----
2024-07-12 09:42 pm NE 2.9 5.1----29.89- 55.9 58.1----
2024-07-12 09:36 pm E 4.1 5.1----29.89- 55.9 58.1----
2024-07-12 09:30 pm E 1.9 4.1----29.89- 55.9 58.1----
2024-07-12 09:24 pm E 2.9 2.9----29.88- 55.8 58.1----
2024-07-12 09:18 pmESE 1.9 2.9----29.88- 55.9 58.1----
2024-07-12 09:12 pmSSE 1.9 1.9----29.88- 55.8 58.1----
2024-07-12 09:06 pm NE 1.0 2.9----29.88- 55.9 58.1----
2024-07-12 09:00 pmNNE 1.0 1.9----29.89+0.03 56.1 58.1----
2024-07-12 08:54 pm NE 2.9 6.0----29.89- 55.9 58.1----
2024-07-12 08:48 pm NE 5.1 6.0----29.89- 55.9 57.9----
2024-07-12 08:42 pm NE 6.0 6.0----29.89- 55.9 57.9----
2024-07-12 08:36 pmENE 2.9 2.9----29.89- 56.1 57.9----
2024-07-12 08:30 pm E 4.1 4.1----29.89- 55.9 57.9----
2024-07-12 08:24 pmENE 2.9 4.1----29.88- 55.9 57.9----
2024-07-12 08:18 pm N 2.9 5.1----29.88- 56.5 57.9----
2024-07-12 08:12 pm N 2.9 5.1----29.88- 56.7 57.9----
2024-07-12 08:06 pmNNE 4.1 7.0----29.89- 56.7 57.9----
2024-07-12 08:00 pmNNE 6.0 8.0----29.88+0.03 56.8 57.9----
2024-07-12 07:54 pmNNE 5.1 8.0----29.89- 57.4 57.9----
2024-07-12 07:48 pm NE 5.1 6.0----29.88- 57.7 57.9----
2024-07-12 07:42 pm NE 5.1 5.1----29.88- 58.3 57.9----
2024-07-12 07:36 pm NE 1.9 4.1----29.88- 58.8 57.9----
2024-07-12 07:30 pmNNE 2.9 4.1----29.88- 59.2 57.9----
2024-07-12 07:24 pmNNW 1.0 2.9----29.88- 59.4 57.9----
2024-07-12 07:18 pm SE 1.9 2.9----29.87- 59.2 57.9----
2024-07-12 07:12 pmESE 1.9 5.1----29.87- 59.2 57.7----
2024-07-12 07:06 pmENE 2.9 4.1----29.87- 59.4 57.7----
2024-07-12 07:00 pm E 1.9 2.9----29.87-0.02 60.1 57.7----
2024-07-12 06:54 pm- 0.0 1.9----29.87- 60.8 57.7----
2024-07-12 06:48 pmSSE 2.9 4.1----29.86- 60.3 57.7----
2024-07-12 06:42 pm SE 1.9 5.1----29.86- 61.2 57.7----
2024-07-12 06:36 pmESE 1.9 4.1----29.86- 61.2 57.6----
2024-07-12 06:30 pm E 2.9 4.1----29.86- 60.6 57.6----
2024-07-12 06:24 pmESE 1.9 4.1----29.85- 61.3 57.6----
2024-07-12 06:18 pm N 1.0 5.1----29.86- 62.6 57.4----
2024-07-12 06:12 pmNNE 2.9 5.1----29.85- 62.2 57.4----
2024-07-12 06:06 pm N 2.9 6.0----29.85- 61.9 57.4----
2024-07-12 06:00 pm N 4.1 8.0----29.85-0.05 62.1 57.2----
2024-07-12 05:54 pm- 0.0 5.1----29.85- 62.6 57.2----
2024-07-12 05:48 pmESE 5.1 6.0----29.85- 62.4 57.2----
2024-07-12 05:42 pmSSW 2.9 5.1----29.85- 62.8 57.2----
2024-07-12 05:36 pm NE 4.1 5.1----29.84- 62.8 57.2----
2024-07-12 05:30 pmNNE 4.1 5.1----29.85- 62.6 57.0----
2024-07-12 05:24 pm E 6.0 6.0----29.85- 61.9 57.0----
2024-07-12 05:18 pmENE 4.1 6.0----29.85- 62.8 57.0----
2024-07-12 05:12 pm W 1.9 7.0----29.85- 64.4 57.0----
2024-07-12 05:06 pmWNW 4.1 8.0----29.85- 63.1 57.0----
2024-07-12 05:00 pm SE 1.9 5.1----29.85-0.04 62.6 57.0----
2024-07-12 04:54 pmESE 4.1 5.1----29.86- 62.1 57.2----
2024-07-12 04:48 pmENE 1.9 4.1----29.87- 61.5 57.2----
2024-07-12 04:42 pm NE 4.1 6.0----29.88- 60.8 57.2----
2024-07-12 04:36 pmNNE 5.1 6.0----29.88- 60.8 57.2----
2024-07-12 04:30 pm E 4.1 7.0----29.88- 61.0 57.0----
2024-07-12 04:24 pm E 2.9 5.1----29.88- 61.0 57.0----
2024-07-12 04:18 pm E 2.9 6.0----29.87- 61.3 57.0----
2024-07-12 04:00 pmNNE 8.0 8.9----29.88-0.03 60.6 57.0----
2024-07-12 03:54 pm N 7.0 8.9----29.89- 61.7 57.0----
2024-07-12 03:48 pmSSW 4.1 8.0----29.90-- 57.2----
2024-07-12 03:42 pm SW 8.9 12.0----29.90-- 57.0----
2024-07-12 03:36 pmSSW 7.0 8.9----29.90-- 57.0----
2024-07-12 03:30 pm SW 5.1 9.9----29.90- 62.6 57.2----
2024-07-12 03:24 pmSSW 6.0 8.9----29.90- 62.4 57.2----
2024-07-12 03:18 pm SW 6.0 9.9----29.90-- 57.2----
2024-07-12 03:12 pm SW 8.9 9.9----29.90-- 57.2----
2024-07-12 03:06 pm SW 4.1 8.9----29.90-- 57.2----
2024-07-12 03:00 pm SW 7.0 12.0----29.90-0.04 62.4 57.2----
2024-07-12 02:54 pmSSW 8.0 12.0----29.91- 61.7 57.2----
2024-07-12 02:48 pm SW 6.0 11.1----29.90- 61.7 57.4----
2024-07-12 02:42 pm SW 7.0 13.0----29.91- 61.3 57.4----
2024-07-12 02:36 pmSSW 7.0 8.9----29.91- 62.1 57.4----
2024-07-12 02:30 pm S 2.9 9.9----29.91- 62.2 57.4----
2024-07-12 02:24 pm SW 7.0 15.9----29.90- 60.4 57.4----
2024-07-12 02:18 pmWSW 11.1 18.1----29.90- 59.9 57.4----
2024-07-12 02:12 pmWSW 14.0 20.0----29.89- 59.2 57.4----
2024-07-12 02:06 pmWSW 12.0 18.1----29.90- 60.1 57.4----
2024-07-12 02:00 pm SW 12.0 15.9----29.89-0.04 60.8 57.4----
2024-07-12 01:54 pmWSW 11.1 14.0----29.90- 61.9 57.6----
2024-07-12 01:48 pmWSW 9.9 15.0----29.89- 62.4 57.6----
2024-07-12 01:42 pmWSW 8.9 14.0----29.90- 62.4 57.6----
2024-07-12 01:36 pm SW 9.9 13.0----29.91- 61.0 57.6----
2024-07-12 01:30 pmWSW 8.9 15.0----29.91- 60.8 57.6----
2024-07-12 01:24 pm SW 9.9 14.0----29.91- 59.7 57.6----
2024-07-12 01:18 pmWSW 9.9 14.0----29.92- 60.6 57.6----
2024-07-12 01:12 pm SW 12.0 15.9----29.92- 60.1 57.6----
2024-07-12 01:06 pmWSW 11.1 15.0----29.92- 59.7 57.6----
2024-07-12 01:00 pm SW 9.9 14.0----29.92-0.01 60.4 57.6----
2024-07-12 12:54 pm SW 8.0 11.1----29.92- 61.2 57.7----
2024-07-12 12:48 pm SW 8.0 12.0----29.92- 60.4 57.7----
2024-07-12 12:42 pm SW 9.9 12.0----29.92- 60.1 57.7----
2024-07-12 12:36 pm SW 8.0 13.0----29.93- 60.4 57.7----
2024-07-12 12:30 pmSSW 8.0 11.1----29.93- 61.2 57.7----
2024-07-12 12:24 pm S 5.1 8.9----29.93- 61.2 57.9----
2024-07-12 12:18 pm S 5.1 8.9----29.94- 60.6 57.9----
2024-07-12 12:12 pm SW 8.0 15.0----29.94- 59.9 58.1----
2024-07-12 12:06 pm S 11.1 15.0----29.95- 58.8 58.1----
2024-07-12 12:00 pm SW 8.9 13.0----29.94+0.00 58.8 57.9----
2024-07-12 11:54 am S 9.9 13.0----29.95- 57.7 58.1----
2024-07-12 11:48 am S 8.9 13.0----29.95- 57.2 58.1----
2024-07-12 11:42 am S 11.1 15.0----29.95- 57.0 58.1----
2024-07-12 11:36 am S 9.9 13.0----29.95- 57.4 58.1----
2024-07-12 11:30 am S 9.9 12.0----29.95- 57.0 58.1----
2024-07-12 11:24 am S 7.0 13.0----29.95- 57.4 58.1----
2024-07-12 11:18 am S 7.0 11.1----29.94- 57.4 58.1----
2024-07-12 11:12 am S 6.0 12.0----29.94- 56.7 58.1----
2024-07-12 11:06 amSSE 8.0 9.9----29.94- 55.8 58.1----
2024-07-12 11:00 amSSE 7.0 8.0----29.94+0.01 55.4 58.1----
2024-07-12 10:54 am S 6.0 8.9----29.94- 55.2 58.1----
2024-07-12 10:48 am S 7.0 9.9----29.95- 54.9 58.1----
2024-07-12 10:42 am S 6.0 8.0----29.94- 54.7 58.1----
2024-07-12 10:36 amSSE 6.0 7.0----29.95- 54.5 58.1----
2024-07-12 10:30 am SE 2.9 8.0----29.94- 55.2 58.1----
2024-07-12 10:24 amSSE 5.1 7.0----29.93- 54.7 57.9----
2024-07-12 10:18 am SE 4.1 6.0----29.94- 54.5 58.1----
2024-07-12 10:12 am SE 4.1 6.0----29.94- 54.7 58.1----
2024-07-12 10:06 am NE 4.1 7.0----29.92- 54.3 58.1----
2024-07-12 10:00 amNNE 5.1 6.0----29.93+0.00 54.3 58.1----
2024-07-12 09:54 amNNE 6.0 7.0----29.93- 54.5 57.9----
2024-07-12 09:48 am SE 1.0 7.0----29.95- 54.5 57.9----
2024-07-12 09:42 amSSE 5.1 6.0----29.95- 54.0 57.9----
2024-07-12 09:36 amSSE 5.1 6.0----29.95- 53.8 57.9----
2024-07-12 09:30 am SE 1.0 8.0----29.94- 54.1 57.9----
2024-07-12 09:24 amSSE 2.9 5.1----29.94- 53.8 57.9----
2024-07-12 09:18 am- 0.0 8.0----29.94- 54.0 57.7----
2024-07-12 09:12 am N 2.9 7.0----29.93- 53.8 57.7----
2024-07-12 09:06 am S 2.9 7.0----29.94- 53.8 57.7----
2024-07-12 09:00 am S 7.0 8.9----29.95+0.06 53.6 57.7----
2024-07-12 08:54 am S 4.1 6.0----29.94- 53.6 57.7----
2024-07-12 08:48 am SE 1.9 8.0----29.92- 53.8 57.7----
2024-07-12 08:42 amSSE 1.9 8.0----29.93- 53.6 57.7----
2024-07-12 08:36 amSSW 1.9 8.9----29.94- 53.6 57.7----
2024-07-12 08:30 am S 4.1 8.0----29.93- 54.0 57.6----
2024-07-12 08:24 amSSE 7.0 8.9----29.94- 53.6 57.7----
2024-07-12 08:18 amSSE 2.9 8.9----29.94- 53.6 57.6----
2024-07-12 08:12 am SE 6.0 9.9----29.94- 53.8 57.7----
2024-07-12 08:06 am SE 8.9 9.9----29.94- 53.8 57.7----
2024-07-12 08:00 amSSE 8.0 8.9----29.92+0.07 54.1 57.6----
2024-07-12 07:54 am E 4.1 6.0----29.91- 54.1 57.6----
2024-07-12 07:48 am E 4.1 7.0----29.92- 54.3 57.6----
2024-07-12 07:42 am NE 7.0 8.0----29.91- 53.6 57.6----
2024-07-12 07:36 amENE 8.0 8.9----29.91- 53.8 57.6----
2024-07-12 07:30 am SE 4.1 11.1----29.92- 54.0 57.4----
2024-07-12 07:24 am SE 4.1 5.1----29.91- 53.8 57.4----
2024-07-12 07:18 amNNE 1.0 6.0----29.90- 53.6 57.4----
2024-07-12 07:12 amNNW 5.1 6.0----29.89- 53.6 57.4----
2024-07-12 07:06 amENE 1.9 11.1----29.91- 53.6 57.2----
2024-07-12 07:00 am S 8.0 11.1----29.92+0.06 53.2 57.0----
2024-07-12 06:54 am W 5.1 12.0----29.89- 53.1 57.0----
2024-07-12 06:48 amWSW 4.1 15.9----29.92- 53.6 57.0----
2024-07-12 06:42 am S 14.0 18.1----29.94- 53.6 57.0----
2024-07-12 06:36 am S 8.0 11.1----29.92- 54.0 57.0----
2024-07-12 06:30 amESE 6.0 15.0----29.88- 53.8 56.8----
2024-07-12 06:24 am N 4.1 7.0----29.87- 53.6 56.8----
2024-07-12 06:18 am NE 5.1 6.0----29.86- 53.8 56.8----
2024-07-12 06:12 am N 4.1 7.0----29.86- 53.8 57.0----
2024-07-12 06:06 amNNE 4.1 5.1----29.88- 53.4 56.8----
2024-07-12 06:00 am N 2.9 5.1----29.88+0.01 53.4 56.8----
2024-07-12 05:54 am NE 1.9 2.9----29.88- 53.4 57.0----
2024-07-12 05:48 amSSE 5.1 7.0----29.89- 53.4 56.8----
2024-07-12 05:42 amESE 2.9 7.0----29.88- 53.2 56.8----
2024-07-12 05:36 amESE 5.1 6.0----29.89- 53.4 57.0----
2024-07-12 05:30 amENE 6.0 11.1----29.87- 53.4 57.0----
2024-07-12 05:24 am N 8.0 9.9----29.86- 53.8 56.8----
2024-07-12 05:18 am N 4.1 5.1----29.87- 54.0 56.7----
2024-07-12 05:12 amNNE 5.1 6.0----29.87- 53.8 56.8----
2024-07-12 05:06 am S 2.9 6.0----29.87- 53.8 56.7----
2024-07-12 05:00 amNNW 6.0 18.1----29.85-0.01 53.6 56.8----
2024-07-12 04:54 am S 14.0 18.1----29.89- 53.6 56.7----
2024-07-12 04:48 amSSE 1.9 7.0----29.84-- 56.8----
2024-07-12 04:42 amNNE 2.9 7.0----29.84-- 56.7----
2024-07-12 04:36 am N 8.9 12.0----29.85-- 56.7----
2024-07-12 04:30 am S 8.9 12.0----29.88- 53.4 56.8----
2024-07-12 04:24 am S 4.1 6.0----29.87- 53.6 56.8----
2024-07-12 04:18 am S 9.9 14.0----29.86- 53.4 56.7----
2024-07-12 04:12 amSSE 8.0 12.0----29.86- 54.0 56.7----
2024-07-12 04:06 amNNW 7.0 8.9----29.83- 53.6 56.8----
2024-07-12 04:00 am S 1.0 12.0----29.86-0.02 54.1 56.7----
2024-07-12 03:54 am S 2.9 9.9----29.86- 54.1 56.8----